KUIPER-00073

Last updated on Sat Aug 16 2025 00:02:05 GMT+0000 (Coordinated Universal Time)

1 64820U 25151E 25227.58336806 .00052705 00000+0 21428-2 0 9998 2 64820 51.8835 141.9822 0008175 271.7907 137.8551 15.24002957 4721
UTC large
Height (km)
Speed (km/s)
/
Latitude / Longitude
Inclination (degrees)
Orbital Period (minutes)
Azimuth
Elevation
Range (km)
Doppler Factor

Next 0 passes for location: London (51.5072 / 0.1276)

Sorry there are no passes over London.